Weather History for KOSH - April, 2014

Change the Weather History Date:

Saturday, April 26, 2014

  Actual Average (WUND) Record (WUND)
Temperature  
Mean Temperature 40 °F -  
Max Temperature 48 °F - - (-1)
Min Temperature 34 °F - - (-1)
Degree Days  
Heating Degree Days 25    
Moisture  
Dew Point 29 °F    
Average Humidity 63    
Maximum Humidity 75    
Minimum Humidity 54    
Precipitation  
Precipitation 0.00 in - - ()
Sea Level Pressure  
Sea Level Pressure 30.03 in    
Wind  
Wind Speed 12 mph (NNE)    
Max Wind Speed 16 mph    
Max Gust Speed 24 mph    
Visibility 10 miles    
Events      
Averages and records for this station are not official NWS values.
T = Trace of Precipitation, MM = Missing Value Source: NWS Daily Summary

Daily Weather History Graph

Daily Weather History Graph

Search for Another Location

Airport or City:

Trip Planner

Search our weather history database for the weather conditions in past years. The results will help you decide how hot, cold, wet, or windy it might be!

Date:

Astronomy

Apr. 26, 2014 Rise Set
Actual Time 5:53 AM CDT 7:51 PM CDT
Civil Twilight 5:22 AM CDT 8:22 PM CDT
Nautical Twilight 4:44 AM CDT 9:01 PM CDT
Astronomical Twilight 4:02 AM CDT 9:42 PM CDT
Moon 4:23 AM CDT (4/26) 5:14 PM CDT (4/26)
Length of Visible Light 15h 00m
Length of Day
13h 58m
Waning Crescent, 8% of the Moon is Illuminated
Apr 26
Waning Crescent
Apr 29
New
May 6
First Quarter
May 14
Full
May 21
Last Quarter

Hourly Weather History & Observations

Time (CDT) Temp. Windchill Dew Point Humidity Pressure Visibility Wind Dir Wind Speed Gust Speed Precip Events Conditions
12:53 AM 43.0 °F 37.2 °F 28.9 °F 58% 29.87 in 10.0 mi NNW 10.4 mph - N/A   Clear
1:53 AM 41.0 °F 35.2 °F 30.0 °F 65% 29.88 in 10.0 mi NW 9.2 mph - N/A   Clear
2:53 AM 39.0 °F 31.0 °F 28.9 °F 67% 29.89 in 10.0 mi NNW 13.8 mph - N/A   Clear
3:53 AM 37.0 °F 29.3 °F 28.0 °F 70% 29.91 in 10.0 mi NNW 11.5 mph - N/A   Clear
4:53 AM 35.1 °F 25.9 °F 27.0 °F 72% 29.93 in 10.0 mi NNW 13.8 mph - N/A   Clear
5:53 AM 34.0 °F 28.0 °F 27.0 °F 75% 29.97 in 10.0 mi WNW 6.9 mph - N/A   Clear
6:53 AM 36.0 °F 29.6 °F 28.0 °F 73% 29.99 in 10.0 mi NW 8.1 mph - N/A   Clear
7:53 AM 39.0 °F 32.3 °F 28.9 °F 67% 30.01 in 10.0 mi North 10.4 mph - N/A   Clear
8:35 AM 39.9 °F 32.1 °F 28.9 °F 65% 30.01 in 10.0 mi North 13.8 mph - N/A   Mostly Cloudy
8:53 AM 39.0 °F 30.3 °F 28.9 °F 67% 30.04 in 10.0 mi North 16.1 mph - N/A   Overcast
9:53 AM 39.0 °F 31.4 °F 28.9 °F 67% 30.05 in 10.0 mi NE 12.7 mph - N/A   Overcast
10:53 AM 41.0 °F 33.9 °F 30.0 °F 65% 30.07 in 10.0 mi NE 12.7 mph - N/A   Overcast
11:53 AM 43.0 °F 36.0 °F 30.0 °F 60% 30.08 in 10.0 mi NNE 13.8 mph - N/A   Overcast
12:53 PM 44.1 °F 37.4 °F 30.0 °F 58% 30.08 in 10.0 mi ENE 13.8 mph - N/A   Overcast
1:53 PM 45.0 °F 38.2 °F 30.0 °F 56% 30.09 in 10.0 mi NE 15.0 mph - N/A   Overcast
2:53 PM 46.0 °F 41.4 °F 30.0 °F 54% 30.10 in 10.0 mi NE 9.2 mph - N/A   Mostly Cloudy
3:53 PM 46.9 °F - 30.9 °F 54% 30.08 in 10.0 mi NE 9.2 mph - N/A   Clear
4:53 PM 46.9 °F - 30.9 °F 54% 30.08 in 10.0 mi ENE 11.5 mph - N/A   Scattered Clouds
5:53 PM 46.9 °F - 30.9 °F 54% 30.07 in 10.0 mi ENE 10.4 mph - N/A   Clear
6:53 PM 45.0 °F 39.3 °F 32.0 °F 60% 30.08 in 10.0 mi East 11.5 mph - N/A   Partly Cloudy
7:53 PM 43.0 °F 36.8 °F 32.0 °F 65% 30.08 in 10.0 mi East 11.5 mph - N/A   Clear
8:53 PM 41.0 °F 33.5 °F 28.9 °F 62% 30.11 in 10.0 mi East 13.8 mph - N/A   Clear
9:53 PM 41.0 °F 34.3 °F 28.9 °F 62% 30.13 in 10.0 mi East 11.5 mph - N/A   Clear
10:53 PM 41.0 °F 33.1 °F 28.0 °F 60% 30.11 in 10.0 mi ENE 15.0 mph 24.2 mph N/A   Clear
11:53 PM 39.9 °F 31.8 °F 28.0 °F 63% 30.14 in 10.0 mi ENE 15.0 mph 23.0 mph N/A   Overcast